Location: Unspecified
(0.0000°N, 0.0000°E)
Time: 18:30:48
(UTC+00:00)

Envisat - Pass Details

Date: 03 October 2021
Orbit: 764 x 766 km, 98.2° (Epoch: 22 October)

Event Time Altitude Azimuth Distance (km) Brightness Sun altitude
Rises 04:12:08 0° 28° (NNE) 3,213 6.5 -24.2°
Reaches altitude 10° 04:14:36 10° 36° (NE) 2,290 5.8 -23.6°
Maximum altitude 04:19:12 36° 102° (ESE) 1,198 4.6 -22.4°
Drops below altitude 10° 04:23:48 10° 168° (SSE) 2,299 5.7 -21.3°
Sets 04:26:16 0° 176° (S) 3,228 6.3 -20.6°
